TimeEST,TemperatureF,Dew PointF,Humidity,Sea Level PressureIn,VisibilityMPH,Wind Direction,Wind SpeedMPH,Gust SpeedMPH,PrecipitationIn,Events,Conditions,WindDirDegrees,DateUTC
12:53 AM,21.0,16.0,81,30.28,9.0,SSW,6.9,-,N/A,,Clear,210,2013-01-05 05:53:00
1:53 AM,21.0,16.0,81,30.29,10.0,SW,5.8,-,N/A,,Clear,220,2013-01-05 06:53:00
2:53 AM,19.0,15.1,85,30.30,8.0,SSW,3.5,-,N/A,,Clear,200,2013-01-05 07:53:00
3:53 AM,19.0,14.0,81,30.30,8.0,SSW,5.8,-,N/A,,Clear,210,2013-01-05 08:53:00
4:53 AM,19.0,14.0,81,30.31,7.0,SW,5.8,-,N/A,,Clear,220,2013-01-05 09:53:00
5:53 AM,19.0,15.1,85,30.32,7.0,SSW,5.8,-,N/A,,Clear,210,2013-01-05 10:53:00
6:53 AM,18.0,14.0,84,30.32,7.0,Calm,Calm,-,N/A,,Clear,0,2013-01-05 11:53:00
7:53 AM,16.0,12.0,84,30.32,5.0,South,3.5,-,N/A,,Clear,190,2013-01-05 12:53:00
8:53 AM,18.0,16.0,92,30.32,5.0,South,3.5,-,N/A,,Clear,180,2013-01-05 13:53:00
9:53 AM,23.0,17.1,78,30.33,6.0,SSW,6.9,-,N/A,,Haze,200,2013-01-05 14:53:00
10:53 AM,26.1,19.0,75,30.31,7.0,SSW,9.2,-,N/A,,Clear,200,2013-01-05 15:53:00
11:53 AM,27.0,19.9,75,30.28,7.0,SSW,6.9,-,N/A,,Clear,200,2013-01-05 16:53:00
12:53 PM,30.0,21.0,69,30.25,8.0,SW,8.1,-,N/A,,Clear,220,2013-01-05 17:53:00
1:53 PM,30.9,21.9,69,30.21,8.0,SSW,9.2,-,N/A,,Clear,200,2013-01-05 18:53:00
2:53 PM,32.0,21.9,66,30.18,9.0,SSW,9.2,-,N/A,,Clear,210,2013-01-05 19:53:00
3:53 PM,33.1,23.0,66,30.18,9.0,SSW,9.2,-,N/A,,Partly Cloudy,210,2013-01-05 20:53:00
4:53 PM,33.1,24.1,70,30.16,9.0,SSW,6.9,-,N/A,,Mostly Cloudy,200,2013-01-05 21:53:00
5:53 PM,33.1,25.0,72,30.17,10.0,SW,8.1,-,N/A,,Overcast,220,2013-01-05 22:53:00
6:53 PM,34.0,28.0,79,30.17,5.0,SW,10.4,-,0.00,Snow,Light Snow,220,2013-01-05 23:53:00
6:58 PM,33.8,28.4,81,30.14,2.0,SW,13.8,19.6,0.00,Snow,Light Snow,220,2013-01-05 23:58:00
7:06 PM,33.8,28.4,81,30.13,1.8,SW,13.8,-,0.00,Snow,Light Snow,220,2013-01-06 00:06:00
7:38 PM,33.8,30.2,87,30.13,3.0,SW,9.2,-,0.00,Snow,Light Snow,220,2013-01-06 00:38:00
7:48 PM,33.8,30.2,87,30.13,2.5,SW,8.1,-,0.00,Snow,Light Snow,220,2013-01-06 00:48:00
7:53 PM,33.1,30.0,89,30.16,3.0,SSW,9.2,-,0.00,Snow,Light Snow,210,2013-01-06 00:53:00
8:18 PM,33.8,30.2,87,30.11,2.0,SSW,9.2,-,0.00,Snow,Light Snow,200,2013-01-06 01:18:00
8:27 PM,33.8,30.2,87,30.11,3.0,SSW,9.2,-,0.00,Snow,Light Snow,200,2013-01-06 01:27:00
8:53 PM,33.1,30.0,89,30.15,6.0,SW,10.4,17.3,0.00,,Overcast,220,2013-01-06 01:53:00
9:53 PM,32.0,28.9,88,30.14,4.0,SW,10.4,-,0.00,Snow,Light Snow,220,2013-01-06 02:53:00
10:53 PM,33.1,30.0,89,30.12,6.0,SSW,9.2,-,0.00,,Overcast,210,2013-01-06 03:53:00
11:53 PM,33.1,30.0,89,30.10,7.0,SSW,10.4,-,N/A,,Overcast,210,2013-01-06 04:53:00